DW9151 Weather Reports


Display with metric or nautical units.
time (UTC)temp
F
wind
direction
speed
MPH
gust
MPH
rain 1hr
in
rain 24hr
in
rain mn
in
humidity
%
barometer
mb
20260904050605 61 0 6.0 9.0 0.00 0.00 0.00 56 1020.3
20260904045605 61 0 6.0 10.0 0.00 0.00 0.00 56 1020.4
20260904045105 60 0 9.0 12.0 0.00 0.00 0.00 56 1020.4
20260904044105 60 0 7.0 10.0 0.00 0.00 0.00 56 1020.3
20260904043605 60 1 8.0 12.0 0.00 0.00 0.00 56 1020.3
20260904043105 60 357 8.0 12.0 0.00 0.00 0.00 57 1020.2
20260904042605 60 1 7.0 12.0 0.00 0.00 0.00 57 1020.3
20260904042105 60 2 8.0 12.0 0.00 0.00 0.00 57 1020.2
20260904041606 60 11 9.0 12.0 0.00 0.00 0.00 57 1020.3
20260904041106 60 1 9.0 12.0 0.00 0.00 0.00 57 1020.3
20260904040606 60 0 7.0 12.0 0.00 0.00 0.00 58 1020.2
20260904040106 60 19 7.0 10.0 0.00 0.00 0.00 58 1020.3
20260904035105 60 6 5.0 9.0 0.00 0.00 0.00 59 1020.2
20260904034606 60 34 3.0 8.0 0.00 0.00 0.00 59 1020.3
20260904034105 60 28 3.0 7.0 0.00 0.00 0.00 59 1020.3
20260904033606 60 44 5.0 10.0 0.00 0.00 0.00 59 1020.4
20260904033105 60 356 5.0 8.0 0.00 0.00 0.00 59 1020.2
20260904032606 60 20 5.0 9.0 0.00 0.00 0.00 59 1020.2
20260904031606 61 0 2.0 13.0 0.00 0.00 0.00 59 1020.3
20260904031105 61 7 12.0 17.0 0.00 0.00 0.00 58 1020.3
20260904030106 60 0 13.0 17.0 0.00 0.00 0.00 60 1020.2
20260904025606 60 1 9.0 15.0 0.00 0.00 0.00 60 1020.2
20260904025105 60 8 10.0 16.0 0.00 0.00 0.00 61 1020.2
20260904024606 61 9 12.0 17.0 0.00 0.00 0.00 60 1020.2
20260904024105 61 1 13.0 18.0 0.00 0.00 0.00 59 1020.3
20260904023606 61 0 13.0 18.0 0.00 0.00 0.00 59 1020.3
20260904023106 61 0 13.0 17.0 0.00 0.00 0.00 60 1020.3
20260904022605 61 0 13.0 17.0 0.00 0.00 0.00 59 1020.3
20260904022105 61 0 13.0 16.0 0.00 0.00 0.00 60 1020.4
20260904021106 61 0 11.0 16.0 0.00 0.00 0.00 62 1020.4
20260904015605 60 1 11.0 15.0 0.00 0.00 0.00 63 1020.2
20260904015105 60 0 8.0 14.0 0.00 0.00 0.00 63 1020.3
20260904014606 60 9 7.0 14.0 0.00 0.00 0.00 66 1020.3
20260904014105 60 8 3.0 9.0 0.00 0.00 0.00 66 1020.3
20260904013606 60 30 2.0 7.0 0.00 0.00 0.00 66 1020.2
20260904013105 60 41 2.0 6.0 0.00 0.00 0.00 66 1020.2
20260904012605 60 12 5.0 9.0 0.00 0.00 0.00 66 1020.2
20260904012105 60 1 5.0 8.0 0.00 0.00 0.00 68 1020.2
20260904011605 60 6 5.0 9.0 0.00 0.00 0.00 68 1020.3
20260904011105 60 1 3.0 12.0 0.00 0.00 0.00 68 1020.3
20260904010105 60 3 4.0 8.0 0.00 0.00 0.00 68 1020.4
20260904005606 60 33 3.0 6.0 0.00 0.00 0.00 68 1020.4
20260904005105 60 36 2.0 5.0 0.00 0.00 0.00 67 1020.5
20260904003605 61 0 9.0 12.0 0.00 0.00 0.00 65 1020.5
20260904003106 60 0 9.0 12.0 0.00 0.00 0.00 66 1020.6
20260904002105 60 358 7.0 9.0 0.00 0.00 0.00 71 1020.7
20260904001605 60 0 7.0 8.0 0.00 0.00 0.00 72 1020.7
20260904001105 60 0 7.0 10.0 0.00 0.00 0.00 73 1020.8
20260904000605 61 0 9.0 12.0 0.00 0.00 0.00 69 1020.8
20260903235105 60 0 9.0 12.0 0.00 0.00 0.00 76 1020.8
20260903234607 60 0 10.0 12.0 0.00 0.00 0.00 76 1020.9
20260903234105 60 352 7.0 12.0 0.00 0.00 0.00 76 1020.9
20260903232605 61 356 10.0 12.0 0.00 0.00 0.00 71 1020.9
20260903232105 61 0 7.0 12.0 0.00 0.00 0.00 70 1020.9
20260903231606 61 0 6.0 9.0 0.00 0.00 0.00 70 1020.9
20260903231105 61 0 7.0 10.0 0.00 0.00 0.00 72 1020.9
20260903230605 61 0 5.0 8.0 0.00 0.00 0.00 71 1020.9
20260903230105 61 0 2.0 5.0 0.00 0.00 0.00 70 1020.9
20260903225605 61 356 6.0 12.0 0.00 0.00 0.00 71 1021.0
20260903225105 61 2 6.0 12.0 0.00 0.00 0.00 71 1021.0
20260903224605 61 9 5.0 13.0 0.00 0.00 0.00 71 1020.9
20260903224105 61 356 5.0 12.0 0.00 0.00 0.00 72 1020.9
20260903223605 60 356 7.0 12.0 0.00 0.00 0.00 74 1020.9
20260903223105 60 0 9.0 14.0 0.00 0.00 0.00 74 1021.0
20260903222605 60 0 12.0 15.0 0.00 0.00 0.00 76 1021.1
20260903222105 60 0 7.0 13.0 0.00 0.00 0.00 72 1021.1
20260903221605 60 358 9.0 14.0 0.00 0.00 0.00 72 1021.1
20260903220105 60 0 7.0 10.0 0.00 0.00 0.00 74 1020.9
20260903215605 60 0 8.0 10.0 0.00 0.00 0.00 75 1020.9
20260903215105 60 0 6.0 8.0 0.00 0.00 0.00 76 1020.8
20260903214605 60 0 5.0 7.0 0.00 0.00 0.00 77 1020.7
20260903214105 59 0 5.0 7.0 0.00 0.00 0.00 78 1020.7
20260903213105 59 0 2.0 6.0 0.00 0.00 0.00 80 1020.7
20260903212105 59 356 6.0 10.0 0.00 0.00 0.00 82 1020.6
20260903211605 59 354 9.0 12.0 0.00 0.00 0.00 83 1020.6
20260903211105 59 0 7.0 10.0 0.00 0.00 0.00 82 1020.6
20260903210105 59 355 4.0 7.0 0.00 0.00 0.00 82 1020.6
20260903205605 59 349 3.0 6.0 0.00 0.00 0.00 82 1020.6
20260903205105 59 0 3.0 7.0 0.00 0.00 0.00 82 1020.6
20260903204605 59 8 3.0 6.0 0.00 0.00 0.00 82 1020.5
20260903204105 59 61 4.0 10.0 0.00 0.00 0.00 82 1020.5
20260903203105 59 0 6.0 12.0 0.00 0.00 0.00 82 1020.5
20260903202605 59 348 6.0 10.0 0.00 0.00 0.00 82 1020.5
20260903202105 59 354 7.0 10.0 0.00 0.00 0.00 83 1020.5
20260903201605 59 357 6.0 10.0 0.00 0.00 0.00 83 1020.6
20260903201105 59 0 5.0 8.0 0.00 0.00 0.00 82 1020.6
20260903195605 59 0 5.0 7.0 0.00 0.00 0.00 82 1020.5
20260903195105 59 0 6.0 8.0 0.00 0.00 0.00 82 1020.5
20260903194604 59 358 5.0 8.0 0.00 0.00 0.00 84 1020.5
20260903194105 59 2 5.0 8.0 0.00 0.00 0.00 84 1020.6
20260903192105 59 350 6.0 9.0 0.00 0.00 0.00 85 1020.6
20260903191604 58 275 3.0 7.0 0.00 0.00 0.00 84 1020.6
20260903191104 58 241 5.0 9.0 0.00 0.00 0.00 85 1020.6
20260903190605 58 315 5.0 8.0 0.00 0.00 0.00 85 1020.6
20260903190105 58 249 3.0 7.0 0.00 0.00 0.00 85 1020.6
20260903185605 58 291 3.0 7.0 0.00 0.00 0.00 85 1020.6
20260903185105 58 317 5.0 9.0 0.00 0.00 0.00 85 1020.5
20260903184604 58 227 5.0 9.0 0.00 0.00 0.00 85 1020.5
20260903184105 58 264 5.0 9.0 0.00 0.00 0.00 85 1020.4
20260903183606 58 207 5.0 10.0 0.00 0.00 0.00 85 1020.4
20260903183105 58 288 5.0 8.0 0.00 0.00 0.00 85 1020.4
20260903182605 58 280 3.0 7.0 0.00 0.00 0.00 85 1020.3
20260903182104 58 197 4.0 10.0 0.00 0.00 0.00 85 1020.3
20260903181605 58 17 3.0 6.0 0.00 0.00 0.00 85 1020.2
20260903181104 58 295 3.0 8.0 0.00 0.00 0.00 85 1020.2
20260903180105 58 353 2.0 5.0 0.00 0.00 0.00 85 1020.1
20260903175604 58 356 2.0 6.0 0.00 0.00 0.00 85 1020.1
20260903175104 58 195 3.0 7.0 0.00 0.00 0.00 85 1020.1
20260903174604 58 188 6.0 12.0 0.00 0.00 0.00 85 1020.1
20260903173605 58 170 5.0 10.0 0.00 0.00 0.00 85 1020.0
20260903173105 58 187 6.0 12.0 0.00 0.00 0.00 86 1020.1
20260903172605 58 164 6.0 9.0 0.00 0.00 0.00 86 1020.1
20260903172104 58 169 7.0 10.0 0.00 0.00 0.00 86 1020.1
20260903171605 58 182 5.0 9.0 0.00 0.00 0.00 85 1020.0
20260903171105 58 183 5.0 10.0 0.00 0.00 0.00 85 1020.0
20260903170604 59 161 5.0 9.0 0.00 0.00 0.00 85 1020.1
20260903170105 59 173 5.0 12.0 0.00 0.00 0.00 85 1020.1
20260903165104 59 164 7.0 10.0 0.00 0.00 0.00 85 1020.1
20260903164605 59 187 6.0 10.0 0.00 0.00 0.00 85 1020.1
20260903164104 59 164 7.0 12.0 0.00 0.00 0.00 85 1020.0
20260903163605 59 193 6.0 10.0 0.00 0.00 0.00 85 1020.0
20260903163104 59 184 6.0 12.0 0.00 0.00 0.00 85 1020.1
20260903162605 60 171 6.0 10.0 0.00 0.00 0.00 84 1020.0
20260903161605 60 228 4.0 7.0 0.00 0.00 0.00 84 1020.0
20260903161104 59 316 4.0 8.0 0.00 0.00 0.00 84 1020.0
20260903160604 60 203 4.0 9.0 0.00 0.00 0.00 84 1020.1
20260903155604 60 168 4.0 9.0 0.00 0.00 0.00 83 1020.1
20260903155105 60 167 4.0 8.0 0.00 0.00 0.00 82 1020.0
20260903154104 60 215 4.0 8.0 0.00 0.00 0.00 81 1019.9
20260903153604 61 180 5.0 13.0 0.00 0.00 0.00 81 1019.9
20260903153104 61 172 4.0 8.0 0.00 0.00 0.00 81 1019.9
20260903152605 61 146 6.0 10.0 0.00 0.00 0.00 79 1019.8
20260903151604 60 167 5.0 10.0 0.00 0.00 0.00 80 1019.6
20260903151104 61 228 6.0 13.0 0.00 0.00 0.00 79 1019.6
20260903150604 61 192 5.0 8.0 0.00 0.00 0.00 78 1019.7
20260903150104 61 176 5.0 9.0 0.00 0.00 0.00 79 1019.7
20260903145606 62 147 7.0 13.0 0.00 0.00 0.00 77 1019.6
20260903145104 62 170 5.0 10.0 0.00 0.00 0.00 78 1019.7
20260903144609 62 198 4.0 8.0 0.00 0.00 0.00 78 1019.7
20260903144104 62 134 5.0 9.0 0.00 0.00 0.00 79 1019.7
20260903143604 62 201 3.0 8.0 0.00 0.00 0.00 77 1019.6
20260903143105 62 178 3.0 8.0 0.00 0.00 0.00 78 1019.8
20260903141605 63 156 7.0 10.0 0.00 0.00 0.00 74 1020.1
20260903141104 64 154 6.0 8.0 0.00 0.00 0.00 74 1020.2
20260903140604 64 154 3.0 7.0 0.00 0.00 0.00 75 1020.2
20260903140104 63 149 2.0 8.0 0.00 0.00 0.00 78 1020.2
20260903135605 62 163 5.0 10.0 0.00 0.00 0.00 76 1020.3
20260903135104 63 150 5.0 8.0 0.00 0.00 0.00 76 1020.4
20260903134605 63 162 3.0 6.0 0.00 0.00 0.00 76 1020.4
20260903133604 62 146 4.0 9.0 0.00 0.00 0.00 79 1020.4
20260903133104 62 188 4.0 7.0 0.00 0.00 0.00 76 1020.5
20260903132604 62 207 2.0 5.0 0.00 0.00 0.00 76 1020.5
20260903132104 62 159 3.0 9.0 0.00 0.00 0.00 78 1020.3
20260903131605 62 159 6.0 12.0 0.00 0.00 0.00 79 1020.3
20260903131105 61 158 6.0 8.0 0.00 0.00 0.00 79 1020.3
20260903130105 61 128 5.0 8.0 0.00 0.00 0.00 80 1020.3
20260903125604 61 166 5.0 7.0 0.00 0.00 0.00 80 1020.3
20260903125104 61 28 5.0 7.0 0.00 0.00 0.00 80 1020.3
20260903124104 61 151 5.0 9.0 0.00 0.00 0.00 80 1020.3
20260903123604 61 143 4.0 12.0 0.00 0.00 0.00 82 1020.3
20260903123104 61 164 5.0 8.0 0.00 0.00 0.00 82 1020.4
20260903122604 61 151 6.0 12.0 0.00 0.00 0.00 80 1020.4
20260903122104 62 146 3.0 8.0 0.00 0.00 0.00 81 1020.4
20260903121605 61 159 2.0 8.0 0.00 0.00 0.00 82 1020.5
20260903121105 61 10 4.0 9.0 0.00 0.00 0.00 82 1020.6
20260903120604 62 131 3.0 8.0 0.00 0.00 0.00 82 1020.6
20260903120105 61 39 5.0 8.0 0.00 0.00 0.00 81 1020.5
20260903115604 62 154 3.0 7.0 0.00 0.00 0.00 81 1020.4
20260903115105 61 161 3.0 6.0 0.00 0.00 0.00 82 1020.6
20260903114604 61 150 3.0 7.0 0.00 0.00 0.00 83 1020.5
20260903114104 61 153 3.0 8.0 0.00 0.00 0.00 83 1020.5
20260903113604 60 52 6.0 9.0 0.00 0.00 0.00 84 1020.5
20260903113105 60 138 5.0 8.0 0.00 0.00 0.00 82 1020.5
20260903112604 61 160 4.0 9.0 0.00 0.00 0.00 82 1020.5
20260903112104 61 156 3.0 6.0 0.00 0.00 0.00 83 1020.5
20260903111604 60 135 5.0 8.0 0.00 0.00 0.00 84 1020.5
20260903111104 60 153 3.0 7.0 0.00 0.00 0.00 83 1020.7
20260903110604 60 156 3.0 7.0 0.00 0.00 0.00 82 1020.7
20260903110105 61 128 6.0 9.0 0.00 0.00 0.00 81 1020.7
20260903105604 61 143 5.0 7.0 0.00 0.00 0.00 81 1020.7
20260903105104 61 147 2.0 7.0 0.00 0.00 0.00 83 1020.7
20260903104104 61 157 4.0 9.0 0.00 0.00 0.00 82 1020.7
20260903103604 61 132 4.0 8.0 0.00 0.00 0.00 81 1020.6
20260903102606 61 133 5.0 9.0 0.00 0.00 0.00 82 1020.6
20260903102106 63 132 5.0 9.0 0.00 0.00 0.00 81 1020.6
20260903101606 63 88 3.0 7.0 0.00 0.00 0.00 80 1020.6
20260903101106 62 131 5.0 12.0 0.00 0.00 0.00 82 1020.6
20260903100606 62 120 6.0 12.0 0.00 0.00 0.00 80 1020.7
20260903100106 62 137 4.0 10.0 0.00 0.00 0.00 80 1020.7
20260903095606 62 127 7.0 12.0 0.00 0.00 0.00 78 1020.7
20260903094606 63 141 4.0 7.0 0.00 0.00 0.00 78 1021.0
20260903094106 64 125 4.0 9.0 0.00 0.00 0.00 77 1021.0
20260903093606 63 151 3.0 6.0 0.00 0.00 0.00 79 1021.0
20260903093106 62 145 2.0 5.0 0.00 0.00 0.00 81 1021.1
20260903090606 62 143 3.0 6.0 0.00 0.00 0.00 79 1021.0
20260903090106 62 142 2.0 8.0 0.00 0.00 0.00 81 1021.0
20260903085106 62 147 3.0 6.0 0.00 0.00 0.00 80 1020.9
20260903084606 64 141 2.0 5.0 0.00 0.00 0.00 76 1020.9
20260903084105 65 133 2.0 3.0 0.00 0.00 0.00 75 1020.9
20260903083605 65 133 1.0 3.0 0.00 0.00 0.00 76 1020.9
20260903083106 65 147 1.0 3.0 0.00 0.00 0.00 74 1020.9
20260903082605 65 140 1.0 3.0 0.00 0.00 0.00 75 1020.8
20260903082106 64 144 1.0 3.0 0.00 0.00 0.00 77 1020.8
20260903081606 64 141 1.0 3.0 0.00 0.00 0.00 78 1020.7
20260903081106 63 133 3.0 7.0 0.00 0.00 0.00 77 1020.7
20260903080606 64 140 3.0 6.0 0.00 0.00 0.00 78 1020.6
20260903074606 64 127 1.0 5.0 0.00 0.00 0.00 78 1020.6
20260903074106 64 125 1.0 5.0 0.00 0.00 0.00 77 1020.7
20260903073606 63 122 2.0 3.0 0.00 0.00 0.00 79 1020.8
20260903073105 62 123 2.0 3.0 0.00 0.00 0.00 80 1020.7
20260903072105 62 119 2.0 3.0 0.00 0.00 0.00 78 1020.7
20260903071605 63 114 2.0 3.0 0.00 0.00 0.00 78 1020.7
20260903071106 63 109 1.0 5.0 0.00 0.00 0.00 79 1020.7
20260903070606 62 106 1.0 3.0 0.00 0.00 0.00 80 1020.7
20260903070106 62 103 1.0 2.0 0.00 0.00 0.00 81 1020.7
20260903065105 61 101 2.0 3.0 0.00 0.00 0.00 81 1020.7
20260903064106 62 87 2.0 6.0 0.00 0.00 0.00 81 1020.5
20260903063605 62 54 1.0 3.0 0.00 0.00 0.00 79 1020.6
20260903063106 63 53 3.0 5.0 0.00 0.00 0.00 76 1020.5
20260903062605 63 357 1.0 3.0 0.00 0.00 0.00 76 1020.5
20260903062105 62 358 0.0 3.0 0.00 0.00 0.00 74 1020.5
20260903061606 61 353 0.0 1.0 0.00 0.00 0.00 74 1020.5
20260903061105 60 357 0.0 3.0 0.00 0.00 0.00 75 1020.5
20260903055606 60 353 1.0 3.0 0.00 0.00 0.00 81 1020.3
20260903055105 60 357 2.0 3.0 0.00 0.00 0.00 80 1020.2
20260903054606 60 353 0.0 0.0 0.00 0.00 0.00 74 1020.2
20260903054105 59 357 0.0 0.0 0.00 0.00 0.00 76 1020.2
20260903053106 57 356 0.0 3.0 0.00 0.00 0.00 81 1020.2
20260903052605 57 356 2.0 5.0 0.00 0.00 0.00 80 1020.1
20260903052105 57 351 2.0 3.0 0.00 0.00 0.00 80 1020.1
20260903051606 57 353 2.0 3.0 0.00 0.00 0.00 78 1020.1